Вернуться в каталог

STARLINK-37907

АктивенСвязьVLEO
NORAD 69959·PAYLOAD·🇺🇸 United States

Запущен Jul 9, 2026 с Cape Canaveral Space Force Station

Loading…

Ближайшие Пролёты (ближайшие 24 часа)

TLE

СвежийSource: CelesTrak SupGP

Эпоха: Sep 15, 2026, 03:28 UTC

1 69959C 26157S   26258.14493056  .00069805  00000+0  20624-2 0  2585
2 69959  53.1582 359.0057 0001207  93.1025  35.0195 15.34356039    16

Отслеживайте STARLINK-37907 в реальном времени с AllMySat

Download on the App Store